TimeEDT,TemperatureF,Dew PointF,Humidity,Sea Level PressureIn,VisibilityMPH,Wind Direction,Wind SpeedMPH,Gust SpeedMPH,PrecipitationIn,Events,Conditions,WindDirDegrees,DateUTC
12:51 AM,55.0,52.0,89,30.12,10.0,Calm,Calm,-,0.01,Rain,Light Rain,0,2013-06-07 04:51:00
1:51 AM,54.0,53.1,97,30.11,10.0,Calm,Calm,-,0.00,,Overcast,0,2013-06-07 05:51:00
2:51 AM,54.0,53.1,97,30.08,10.0,East,4.6,-,0.01,Rain,Light Rain,90,2013-06-07 06:51:00
3:51 AM,55.0,53.1,93,30.06,10.0,East,3.5,-,0.00,,Overcast,80,2013-06-07 07:51:00
4:51 AM,54.0,53.1,97,30.06,10.0,Calm,Calm,-,N/A,,Overcast,0,2013-06-07 08:51:00
5:51 AM,54.0,52.0,93,30.08,10.0,ESE,3.5,-,0.00,,Overcast,110,2013-06-07 09:51:00
6:51 AM,54.0,52.0,93,30.08,10.0,Calm,Calm,-,N/A,,Overcast,0,2013-06-07 10:51:00
7:51 AM,54.0,50.0,86,30.09,10.0,SE,3.5,-,0.00,,Overcast,130,2013-06-07 11:51:00
8:51 AM,54.0,48.9,83,30.09,10.0,East,3.5,-,0.00,Rain,Light Rain,90,2013-06-07 12:51:00
9:51 AM,50.0,48.0,93,30.10,3.0,NNE,5.8,-,0.03,Rain,Light Rain,20,2013-06-07 13:51:00
9:58 AM,50.0,48.2,94,30.09,2.5,NNE,4.6,-,0.02,Rain,Rain,20,2013-06-07 13:58:00
10:02 AM,50.0,48.2,94,30.09,1.8,NNE,4.6,-,0.03,Rain,Rain,20,2013-06-07 14:02:00
10:32 AM,50.0,48.2,94,30.09,1.5,NNE,3.5,-,0.09,Rain,Rain,20,2013-06-07 14:32:00
10:48 AM,50.0,48.2,94,30.10,2.0,NNE,4.6,-,0.14,Rain,Rain,20,2013-06-07 14:48:00
10:51 AM,50.0,48.9,96,30.10,1.8,NNE,4.6,-,0.14,Rain,Rain,30,2013-06-07 14:51:00
10:58 AM,50.0,48.2,94,30.10,1.5,NE,5.8,-,0.02,Rain,Light Rain,50,2013-06-07 14:58:00
11:06 AM,50.0,48.2,94,30.10,1.5,NE,4.6,-,0.03,Rain,Light Rain,50,2013-06-07 15:06:00
11:23 AM,51.8,50.0,94,30.10,2.0,NNE,5.8,-,0.04,Rain,Light Rain,20,2013-06-07 15:23:00
11:40 AM,51.8,50.0,94,30.10,1.5,NNE,6.9,-,0.05,Rain,Light Rain,20,2013-06-07 15:40:00
11:51 AM,51.1,50.0,96,30.10,1.5,NE,5.8,-,0.07,Rain,Light Rain,40,2013-06-07 15:51:00
12:11 PM,51.8,50.0,94,30.08,1.8,NE,4.6,-,0.02,Rain,Light Rain,40,2013-06-07 16:11:00
12:13 PM,51.8,50.0,94,30.08,2.0,NE,5.8,-,0.02,Rain,Light Rain,50,2013-06-07 16:13:00
12:48 PM,51.8,50.0,94,30.08,3.0,NE,9.2,-,0.04,Rain,Light Rain,50,2013-06-07 16:48:00
12:51 PM,51.1,50.0,96,30.08,3.0,NE,10.4,-,0.04,Rain,Light Rain,50,2013-06-07 16:51:00
12:59 PM,51.8,48.2,88,30.08,5.0,NE,6.9,16.1,0.00,Rain,Light Rain,40,2013-06-07 16:59:00
1:06 PM,51.8,50.0,94,30.08,5.0,ENE,5.8,-,0.01,Rain,Light Rain,60,2013-06-07 17:06:00
1:51 PM,52.0,50.0,93,30.08,8.0,NE,4.6,-,0.03,Rain,Light Rain,50,2013-06-07 17:51:00
2:51 PM,52.0,51.1,97,30.07,5.0,NNE,6.9,-,0.03,Rain,Light Rain,30,2013-06-07 18:51:00
3:51 PM,53.1,52.0,96,30.05,4.0,NNE,4.6,-,0.09,Rain,Light Rain,20,2013-06-07 19:51:00
4:38 PM,53.6,51.8,94,30.02,4.0,NNE,8.1,-,0.08,Rain,Rain,30,2013-06-07 20:38:00
4:51 PM,53.1,52.0,96,30.02,4.0,NE,4.6,-,0.10,Rain,Light Rain,40,2013-06-07 20:51:00
5:51 PM,52.0,51.1,97,30.01,4.0,Calm,Calm,-,0.07,Rain,Light Rain,0,2013-06-07 21:51:00
6:33 PM,51.8,50.0,94,30.00,6.0,East,4.6,-,0.04,Rain,Light Rain,80,2013-06-07 22:33:00
6:51 PM,52.0,50.0,93,30.01,4.0,East,6.9,-,0.07,Rain,Rain,90,2013-06-07 22:51:00
7:49 PM,51.8,50.0,94,29.99,4.0,East,6.9,-,0.11,Rain,Rain,80,2013-06-07 23:49:00
7:51 PM,51.1,48.9,92,29.99,4.0,East,6.9,-,0.11,Rain,Rain,80,2013-06-07 23:51:00
7:58 PM,50.0,48.2,94,29.98,4.0,ENE,6.9,-,0.01,Rain,Light Rain,70,2013-06-07 23:58:00
8:09 PM,50.0,48.2,94,29.98,5.0,NE,6.9,-,0.03,Rain,Rain,50,2013-06-08 00:09:00
8:29 PM,50.0,48.2,94,29.97,6.0,NE,9.2,-,0.07,Rain,Rain,50,2013-06-08 00:29:00
8:51 PM,50.0,48.0,93,29.97,7.0,NE,6.9,-,0.10,Rain,Light Rain,40,2013-06-08 00:51:00
9:51 PM,50.0,48.9,96,29.96,7.0,NE,4.6,-,0.09,Rain,Light Rain,40,2013-06-08 01:51:00
10:51 PM,51.1,50.0,96,29.93,10.0,Calm,Calm,-,0.04,Rain,Light Rain,0,2013-06-08 02:51:00
11:51 PM,51.1,50.0,96,29.90,10.0,NNE,5.8,-,0.00,,Overcast,20,2013-06-08 03:51:00